Regional Weather Roundup
Issued by NWS

Home | Current Version | Previous Version | Graphics & Text | Print | Product List | Glossary On
Versions: 1 2 3 4 5 6 7 8 9 10 11 12 13 14 15 16 17 18 19 20 21 22 23 24 25 26 27 28 29 30 31 32 33 34 35 36 37 38 39 40 41 42 43 44 45 46 47 48 49 50
000
ASUS43 KMPX 201001
RWRMN
WEATHER ROUNDUP FOR MINNESOTA
NATIONAL WEATHER SERVICE TWIN CITIES/CHANHASSEN MN
400 AM CST MON NOV 20 2017


NOTE: "FAIR" INDICATES FEW OR NO CLOUDS BELOW 12,000 FEET WITH NO
SIGNIFICANT WEATHER AND/OR OBSTRUCTIONS TO VISIBILITY. N/A MEANS
CURRENT SKY AND/OR WEATHER CONDITIONS ARE NOT AVAILABLE.

MNZ060>063-068>070-201100-
   Twin Cities Metro

CITY           SKY/WX    TMP DP  RH WIND       PRES   REMARKS
TWIN CITIES    CLOUDY    30  26  85 SE6       29.73F WCI  24
ST PAUL        CLOUDY    29  27  92 SE5       29.74F WCI  24
CRYSTAL        CLOUDY    28  22  78 S6        29.70F WCI  22
BLAINE         CLOUDY    28  27  93 S7        29.70F WCI  21
LAKEVILLE      CLOUDY    30  27  86 N3        29.74F
EDEN PRAIRIE   CLOUDY    32  26  78 S7        29.71F WCI  26
SOUTH ST PAUL  CLOUDY    27  26  94 CALM      29.73F
LAKE ELMO      FAIR      30  28  93 S5        29.73F WCI  25
$$
MNZ001>005-007-008-013>017-022>024-027-028-201100-
   Northwest Minnesota

CITY           SKY/WX    TMP DP  RH WIND       PRES   REMARKS
BEMIDJI        CLOUDY    19  18  96 E3        29.60F
HALLOCK        CLOUDY    27  23  86 SE13      29.50F WCI  16
ROSEAU         CLOUDY    25  19  80 SE8       29.54F WCI  16
WARROAD        CLOUDY    19  18  93 SE5       29.56F WCI  13
CROOKSTON      CLOUDY    27  25  93 S10       29.54F WCI  17
FOSSTON        CLOUDY    27  25  93 SE8       29.57F WCI  18
DETROIT LAKES  CLOUDY    27  23  86 SE7       29.60F WCI  19
MOORHEAD       CLOUDY    27  21  80 S10       29.60F WCI  17
PARK RAPIDS    CLOUDY    23  20  88 SE7       29.60F WCI  15
MAHNOMEN       FAIR      30  24  77 S8        29.57F WCI  23
$$
MNZ006-009>011-018-025>026-201100-
   North Central Minnesota

CITY           SKY/WX    TMP DP  RH WIND       PRES   REMARKS
BAUDETTE       CLOUDY    16  13  88 SE6       29.58F WCI   7
FLAG ISLAND    CLOUDY    19  16  86 SE9       29.56F WCI   9
INTL FALLS     CLOUDY    16  12  84 SE7       29.62F WCI   6
WASKISH        CLOUDY    21  19  93 SE3       29.60F
BIG FORK       CLOUDY    18  16  93 CALM      29.62F
LONGVILLE      CLOUDY    18  16  93 CALM      29.63F
GRAND RAPIDS   CLOUDY    17  16  95 SE3       29.66F
CRANE LAKE     CLOUDY    10   9  92 CALM      29.68F
ORR            CLOUDY    18  12  79 CALM      29.62F
COOK           CLOUDY    12  10  92 CALM      29.64F
WALKER         FAIR      23  21  90 CALM      29.62F
$$
MNZ012-019>021-037-201100-
   Northeast Minnesota

CITY           SKY/WX    TMP DP  RH WIND       PRES   REMARKS
DULUTH         CLOUDY    20  19  96 S3        29.67F
ELY            CLOUDY    12  10  92 CALM      29.66F
HIBBING        CLOUDY    13  11  92 CALM      29.66F
EVELETH        CLOUDY    14  10  85 CALM      29.67F
DULUTH HARBOR  CLOUDY    23  19  86 CALM      29.73F
TWO HARBORS    CLOUDY    19  16  86 N3        29.68F
SILVER BAY     CLOUDY    12  12 100 CALM      29.69F
GRAND MARAIS     N/A     20  16  84 NE5       29.76F WCI  13
G MARAIS ARPRT CLEAR     10   5  79 E3        29.68F
$$
MNZ029>031-032-039>041-046>048-054>057-064-201100-
   West Central Minnesota

CITY           SKY/WX    TMP DP  RH WIND       PRES   REMARKS
FERGUS FALLS   CLOUDY    28  21  74 SE9       29.63F WCI  20
WHEATON        CLOUDY    32  25  74 SE8       29.62F WCI  25
MORRIS         CLOUDY    25  21  86 SE8       29.63F WCI  16
ALEXANDRIA     CLOUDY    27  22  81 S5        29.64F WCI  22
ELBOW LAKE     FAIR      27  23  87 E8        29.62F WCI  18
WADENA         CLOUDY    19  18  93 CALM      29.62F
GLENWOOD       CLOUDY    27  23  86 S5        29.65F WCI  21
APPLETON       CLOUDY    27  21  80 CALM      29.64F
BENSON         CLOUDY    27  21  80 S5        29.67F WCI  21
ORTONVILLE     CLOUDY    25  21  86 MISG      29.62F
MADISON        CLOUDY    28  23  80 S8        29.64F WCI  20
WILLMAR        FAIR      27  25  93 SE5       29.68F WCI  21
$$
MNZ033>034-036-042>043-049>051-058-059-201100-
   Central Minnesota

CITY           SKY/WX    TMP DP  RH WIND       PRES   REMARKS
ST CLOUD       CLOUDY    24  21  88 SE5       29.68F WCI  18
SAUK CENTRE    FAIR      26  23  85 SE3       29.65F
PAYNESVILLE    CLOUDY    30  27  86 SE3       29.67F
AITKIN         CLOUDY    18  16  93 CALM      29.64F
PINE RIVER     CLOUDY    19  18  93 CALM      29.68F
BRAINERD       CLOUDY    22  19  89 SE3       29.65F
STAPLES        CLOUDY    21  21 100 CALM      29.63F
LONG PRAIRIE   FAIR      25  23  93 CALM      29.67F
LITTLE FALLS   CLOUDY    25  19  80 CALM      29.67F
LITCHFIELD     CLOUDY    28  27  93 CALM      29.68F
BUFFALO        CLOUDY    31  25  80 CALM      29.71F
MAPLE LAKE     CLOUDY    29  26  90 SE3       29.70F
HUTCHINSON     CLOUDY    26  24  91 SE3       29.70F
$$
MNZ037-044-045-052-053-201100-
   East Central Minnesota

CITY           SKY/WX    TMP DP  RH WIND       PRES   REMARKS
PRINCETON      CLOUDY    27  25  93 CALM      29.68F
MORA           CLOUDY    19  18  93 CALM      29.71F
CAMBRIDGE      CLOUDY    28  25  86 CALM      29.70F
RUSH CITY      CLOUDY    27  24  85 S5        29.70F WCI  22
MOOSE LAKE     CLOUDY    18  14  86 CALM      29.67F
HINCKLEY       FAIR      21  19  93 CALM      29.70F
CLOQUET        CLOUDY    19  16  86 CALM      29.67F
MCGREGOR       CLOUDY    21  19  93 CALM      29.67F
$$
MNZ071>073-080-081-089-090-097-098-201100-
   Southwest Minnesota

CITY           SKY/WX    TMP DP  RH WIND       PRES   REMARKS
MONTEVIDEO     CLOUDY    30  25  80 SW8       29.65F WCI  23
GRANITE FALLS  CLOUDY    30  24  79 SE7       29.68F WCI  23
CANBY          CLOUDY    33  25  73 E6        29.65F WCI  27
MARSHALL       CLOUDY    34  23  64 S8        29.66F WCI  27
REDWOOD FALLS  CLOUDY    27  21  78 SE7       29.68F WCI  19
OLIVIA         CLOUDY    30  25  80 SE7       29.67F WCI  23
PIPESTONE      CLOUDY    27  21  80 SE6       29.66F WCI  20
WINDOM         CLOUDY    34  18  51 S6        29.69F WCI  29
WORTHINGTON    CLOUDY    32  24  72 S13       29.70F WCI  22
JACKSON        CLOUDY    32  27  80 S10       29.72F WCI  24
SLAYTON        CLOUDY    33  24  70 S9        29.69F WCI  25
$$
MNZ065>067-074>077-082>085-091>093-201100-
   South Central Minnesota

CITY           SKY/WX    TMP DP  RH WIND       PRES   REMARKS
MANKATO        CLOUDY    30  26  85 S8        29.73F WCI  22
NEW ULM        CLOUDY    27  21  80 CALM      29.71F
ST JAMES       CLOUDY    30  27  86 SE6       29.72F WCI  24
FAIRMONT       CLOUDY    27  25  92 S10       29.73F WCI  17
GLENCOE        CLOUDY    30  27  87 S3        29.70F
FARIBAULT      CLOUDY    30  27  86 S5        29.74F WCI  25
OWATONNA       CLOUDY    34  27  75 S10       29.74F WCI  26
WASECA         CLOUDY    32  28  86 S8        29.76F WCI  25
ALBERT LEA     CLEAR     34  25  69 S5        29.76F WCI  30
$$
MNZ078>079-086>088-094>096-201100-
   Southeast Minnesota

CITY           SKY/WX    TMP DP  RH WIND       PRES   REMARKS
ROCHESTER      CLEAR     29  26  89 S10       29.77F WCI  20
RED WING       CLOUDY    30  25  80 SE5       29.76F WCI  25
STANTON        CLOUDY    34  28  77 S8        29.73F WCI  27
DODGE CENTER   CLEAR     30  27  86 S12       29.75F WCI  21
WINONA         CLEAR     34  28  80 E5        29.80F WCI  30
PRESTON        CLEAR     30  25  83 S9        29.79F WCI  21
$$
ABBREVIATIONS USED IN REMARKS
   TC - TEMPERATURES IN CELSIUS
  WCI - WIND CHILL INDEX
   HX - HEAT INDEX
  VSB - VISIBILITY
$$




USA.gov is the U.S. government's official web portal to all federal, state and local government web resources and services.